Theta_e
316 315 319 325 327 324 323 323 322 322 324 321 323 322 323 322 322 332 337 339 338 335 334 333 331 329 332 335 332 323 320 318 316 313 311 309 309 310 311 312 313 327 329 326 321 318 315 311 307
315 316 323 324 326 325 323 322 321 322 323 321 322 323 324 329 330 336 338 339 339 339 338 333 330 329 331 333 332 323 320 322 323 322 320 317 313 309 308 309 310 319 326 322 314 313 311 307 306
315 320 324 326 325 324 322 321 322 321 322 321 322 323 324 329 331 337 340 338 339 339 339 336 330 329 330 331 332 326 321 324 326 325 323 321 319 315 310 307 307 310 314 310 311 310 307 306 307
320 321 322 324 324 322 321 321 321 323 319 319 322 323 324 328 335 336 339 338 338 339 339 333 330 329 330 329 330 329 323 324 326 325 323 321 320 319 315 311 307 306 306 307 307 305 305 306 306
320 322 325 324 323 322 320 320 321 322 320 320 321 323 325 327 331 336 338 338 338 338 339 332 331 330 331 329 329 330 325 325 327 326 324 323 323 321 317 315 311 308 305 304 304 304 305 305 305
322 322 324 324 323 321 320 319 321 320 319 321 320 321 324 328 331 335 338 338 337 338 338 331 331 331 331 329 329 330 329 326 327 327 325 324 324 323 320 317 316 314 312 308 305 304 303 303 304
323 323 323 324 322 321 321 319 321 320 319 319 320 321 323 327 329 334 336 336 336 337 337 333 332 332 331 329 329 330 330 329 327 328 326 325 325 325 321 318 317 316 315 315 314 311 309 306 304
321 322 323 322 322 321 320 319 320 320 319 318 320 321 321 324 329 333 336 336 335 337 338 338 334 332 332 330 329 329 330 330 329 328 327 326 325 325 323 320 320 318 318 317 317 316 316 314 310
317 321 321 321 321 320 318 319 316 317 318 318 319 318 319 324 329 333 335 335 335 337 338 337 339 334 335 333 330 330 330 330 330 329 328 327 326 325 325 323 321 320 320 319 318 318 317 317 316
320 321 321 320 320 320 318 318 318 317 317 318 318 316 316 326 328 331 333 334 335 337 338 336 337 336 336 338 333 331 330 330 330 330 329 329 330 329 325 324 323 322 321 320 319 319 317 316 316
319 321 319 318 317 317 318 317 317 317 319 318 318 318 316 323 327 328 331 332 334 335 336 336 336 337 336 337 333 332 332 331 331 331 330 331 331 328 326 325 324 323 322 321 320 319 318 316 315
316 316 316 317 317 316 318 318 317 317 318 318 318 318 317 323 326 328 330 331 332 333 335 334 335 338 336 338 333 331 330 332 332 332 331 330 328 327 327 325 324 323 322 322 321 320 320 318 316
315 316 315 316 315 316 315 317 318 318 318 317 316 316 317 320 324 327 329 331 332 333 333 334 333 334 333 331 331 331 330 330 330 329 331 330 329 328 327 327 326 325 323 322 322 321 320 319 317
316 316 316 316 316 316 316 317 316 318 318 317 316 315 316 317 320 325 328 330 332 333 333 333 330 329 332 331 331 330 330 330 330 330 330 329 329 328 327 327 327 325 324 323 323 322 319 318 317
316 317 316 316 316 317 315 317 317 316 316 316 317 316 316 316 317 321 324 327 331 333 332 332 326 327 329 330 330 331 329 329 329 330 330 330 328 328 327 327 328 326 326 323 322 322 319 318 316
317 317 317 318 316 316 317 317 319 317 317 316 316 317 317 316 316 317 321 325 327 331 328 327 323 325 327 329 331 331 331 330 330 329 330 330 330 328 328 327 327 327 325 324 322 321 321 318 316
318 317 318 318 316 317 317 319 319 315 315 316 316 317 317 317 316 316 316 317 318 324 324 322 321 323 325 327 331 332 331 331 330 328 328 326 328 328 327 328 327 325 326 325 322 321 320 318 316
317 318 317 318 317 316 317 318 318 317 317 317 317 318 318 317 317 316 315 315 316 318 319 319 319 319 322 325 326 327 328 326 328 328 324 326 326 325 327 328 327 327 327 325 323 321 320 318 316
316 317 317 317 316 316 317 317 317 317 317 317 317 317 317 317 318 317 316 315 315 315 315 316 317 317 319 319 319 318 317 315 319 323 321 327 326 324 327 326 326 326 324 325 324 322 320 318 315
316 316 316 317 316 315 316 317 317 317 317 317 317 317 317 317 317 318 317 315 316 315 315 315 315 315 315 315 314 313 313 313 312 312 313 320 325 324 325 324 325 325 327 324 324 321 320 317 316
316 316 316 316 316 315 316 317 317 318 317 317 317 317 317 317 317 318 318 316 316 316 316 315 314 314 314 314 314 313 313 312 312 312 312 314 323 323 321 324 324 325 325 325 324 321 320 319 315
315 316 316 316 316 315 316 316 316 317 317 318 317 317 317 317 317 317 317 317 316 315 316 316 314 314 314 313 313 313 313 313 312 312 312 313 320 320 322 324 324 326 325 323 322 322 320 320 317
316 314 315 316 317 317 317 317 316 317 317 317 317 317 318 318 318 318 317 316 316 315 314 314 314 314 313 313 313 313 313 312 311 311 312 313 319 318 323 323 327 328 325 324 322 322 319 319 316
314 316 316 317 317 316 316 316 316 317 317 317 317 318 318 317 317 316 315 315 315 314 314 314 313 314 313 313 312 312 312 311 311 311 311 312 319 318 320 324 324 324 324 324 323 321 320 318 315
315 316 315 317 320 317 316 316 317 316 317 317 317 317 316 316 315 315 315 315 316 316 315 315 314 313 313 312 312 311 311 311 311 311 311 311 317 316 323 321 325 324 323 321 320 320 318 317 314
315 316 317 318 318 318 314 317 316 317 317 316 315 315 315 315 314 314 314 315 317 317 317 316 316 314 313 312 312 311 310 310 311 311 311 311 315 316 321 323 321 319 321 321 319 318 317 316 312
315 316 316 318 316 316 315 316 316 317 315 315 315 315 315 315 316 315 315 314 315 316 317 317 316 315 314 312 312 311 310 310 310 310 310 310 314 316 321 322 321 322 321 319 318 317 315 312 310
314 314 315 315 321 318 315 316 316 317 317 317 317 316 316 316 316 315 315 316 316 317 317 317 317 316 315 314 313 312 311 310 309 309 310 310 314 315 319 319 320 320 320 318 317 315 313 308 305
313 313 314 315 315 317 318 316 317 317 317 317 317 316 316 316 315 314 314 314 316 317 317 317 317 316 316 315 314 312 310 310 309 309 309 310 314 313 318 318 319 319 317 317 316 314 310 303 303
314 314 314 316 316 315 316 317 317 316 315 316 315 315 315 315 316 315 315 315 316 317 317 317 317 317 317 315 314 313 311 310 309 308 308 309 311 312 316 315 316 316 316 316 314 311 304 300 301
Wind_Speed
3 3 3 4 6 3 1 4 2 7 5 4 3 1 7 7 6 4 15 13 17 18 15 14 12 12 11 10 8 9 10 11 12 14 14 15 14 13 13 13 14 18 13 12 12 13 13 14 16
3 1 3 5 5 4 6 6 6 7 7 6 4 2 2 5 5 10 17 15 16 16 14 15 13 13 11 11 9 8 9 10 12 13 13 13 13 13 13 12 12 14 13 13 12 13 13 14 16
2 1 8 3 3 4 5 3 6 7 6 6 4 2 2 5 5 16 10 19 17 16 15 15 14 14 12 11 9 8 8 9 10 11 11 11 11 11 11 12 11 11 11 11 12 12 14 15 17
1 3 4 7 5 4 5 2 8 10 4 4 2 4 3 3 13 9 16 18 17 16 14 16 15 14 12 11 9 7 7 8 9 10 10 10 10 10 9 10 11 10 11 12 12 13 14 15 16
2 4 5 3 5 2 1 0 8 8 7 7 6 3 2 8 10 12 17 18 17 15 15 17 16 15 13 12 10 9 7 8 9 9 9 10 11 10 10 10 10 10 10 11 12 13 13 14 16
8 4 6 6 1 1 1 5 8 8 4 5 6 3 4 10 13 14 16 17 16 16 16 18 17 15 14 12 11 9 7 8 8 8 8 9 10 9 9 9 9 9 9 10 11 12 12 14 15
13 6 9 4 4 3 2 7 10 9 6 7 1 4 4 13 13 16 17 17 16 16 16 17 18 16 14 13 12 11 9 8 8 7 7 8 8 8 9 10 10 10 10 10 10 11 11 13 14
6 4 8 7 6 3 5 8 5 8 6 5 4 2 4 15 16 16 17 18 17 18 17 16 17 18 17 15 13 12 11 9 8 7 6 6 7 8 9 10 11 11 11 11 11 11 11 12 14
2 6 8 8 5 2 7 9 4 4 6 5 6 2 5 16 17 18 20 19 20 20 19 18 19 17 16 15 16 14 12 11 10 10 8 7 7 8 8 8 9 9 10 11 11 12 11 11 12
7 8 7 3 3 3 7 10 8 6 12 12 10 9 8 16 19 21 22 23 23 23 21 21 20 18 16 17 16 15 14 14 13 13 10 9 9 10 9 8 6 6 6 8 9 10 10 11 12
4 8 3 2 2 2 6 9 7 10 13 14 14 14 14 15 19 21 22 22 24 22 21 22 22 20 19 19 17 16 16 15 16 16 14 14 12 10 10 9 8 7 4 5 6 7 8 10 10
6 2 2 2 2 2 5 3 7 17 19 5 11 8 17 19 21 24 24 23 23 23 23 23 22 21 23 19 21 19 19 17 16 17 16 16 12 12 10 10 10 9 6 4 4 5 7 8 10
7 3 3 3 3 4 3 8 9 15 18 14 11 13 17 18 20 21 22 22 22 24 24 23 25 24 23 27 22 23 23 21 19 18 19 18 16 16 14 14 13 11 10 9 5 5 7 9 10
1 5 4 4 5 4 5 8 3 8 14 19 17 17 16 19 21 21 23 24 26 26 27 25 28 29 26 26 24 27 24 23 24 24 24 22 20 18 17 17 16 15 16 13 8 5 8 10 11
2 5 6 10 7 4 4 10 16 17 13 12 21 19 19 20 20 24 25 27 27 28 27 29 31 32 33 32 31 28 26 29 25 26 28 25 24 23 20 18 20 16 22 16 11 7 9 11 13
4 4 8 7 7 4 5 12 5 5 14 18 19 19 20 22 24 23 24 26 28 28 31 32 34 34 34 34 33 32 31 30 30 29 29 27 25 25 24 23 21 22 21 20 16 11 9 13 15
6 7 9 6 6 2 11 9 1 1 7 16 17 20 23 24 23 24 27 29 29 30 32 35 36 35 35 35 35 35 35 34 34 35 35 33 30 28 28 28 25 24 24 26 20 16 13 16 19
9 8 7 9 5 6 10 17 17 18 14 16 17 19 20 22 26 26 28 30 30 33 34 35 37 37 37 37 37 36 37 38 35 38 38 36 35 33 33 32 29 28 29 30 24 21 16 18 21
4 5 8 3 4 4 11 19 18 22 24 24 27 28 28 30 26 23 27 31 34 35 37 39 39 39 39 39 39 39 41 38 38 42 38 38 39 35 36 34 32 33 29 35 30 25 21 22 25
8 12 14 13 2 4 14 21 18 20 28 27 28 30 29 29 27 27 26 30 34 37 38 40 41 41 40 40 39 38 38 38 38 40 38 37 41 39 38 39 35 36 34 39 34 31 27 25 29
13 14 12 13 2 13 13 19 17 17 21 19 28 32 31 33 30 26 28 33 35 36 38 40 41 42 41 40 38 36 38 40 39 39 40 40 42 41 40 39 39 37 38 38 39 31 30 30 32
15 12 13 11 7 7 1 10 17 17 18 16 23 25 29 27 24 23 26 30 35 38 38 40 41 42 42 41 41 42 43 41 40 39 39 41 42 41 41 41 38 36 38 39 33 33 32 31 35
4 4 3 4 7 9 13 8 9 13 14 15 21 25 23 21 19 18 19 25 31 30 34 36 38 41 42 43 42 43 43 41 40 39 39 41 42 41 41 39 41 41 48 41 46 40 36 34 36
10 6 4 1 3 9 13 13 15 15 15 9 8 9 7 8 8 11 14 19 22 24 26 30 35 37 40 42 43 45 44 41 41 40 41 41 43 42 43 42 43 46 50 49 41 36 37 36 38
10 7 4 5 6 10 5 5 19 14 14 9 12 15 19 9 8 9 10 12 14 16 19 24 29 34 37 40 41 43 43 40 41 41 41 41 44 44 43 43 39 39 40 37 36 36 37 39 40
15 14 7 8 8 12 4 10 9 3 9 13 14 21 23 18 17 18 16 14 13 15 16 18 21 26 31 35 38 41 41 41 41 40 40 38 42 41 41 42 41 41 39 40 37 37 39 40 41
9 11 14 10 1 5 10 21 22 15 10 16 25 26 26 21 18 20 16 19 20 17 16 15 16 19 23 27 31 36 39 41 43 42 40 39 38 39 42 42 42 41 42 40 38 40 41 40 41
8 3 7 7 6 11 16 20 15 10 13 12 12 12 18 12 12 15 14 15 17 15 12 12 13 15 17 21 25 29 33 37 40 40 41 40 38 38 41 39 40 43 43 41 41 42 41 40 40
8 10 8 5 8 7 12 12 13 15 6 5 4 6 11 10 10 6 11 18 15 12 11 11 12 13 14 17 20 24 30 33 37 40 42 39 39 38 37 37 40 42 42 42 43 42 40 40 40
17 21 20 9 11 7 10 17 15 4 4 6 9 14 8 8 9 8 7 10 11 12 11 11 11 12 15 17 18 21 26 30 35 39 41 39 40 39 40 38 40 41 42 43 44 42 41 41 41
Wind_Direction
259 308 335 275 245 240 347 138 46 142 150 95 105 291 9 20 2 30 144 147 164 164 164 161 155 152 148 139 117 102 97 92 89 85 85 90 93 95 98 101 102 107 114 118 106 94 87 81 85
242 296 282 276 265 270 97 119 177 157 82 143 155 205 226 76 69 129 147 152 161 168 172 170 164 159 155 152 140 112 97 96 94 91 88 89 91 93 99 100 105 110 111 104 98 93 87 87 89
214 170 264 282 291 309 27 160 161 115 137 167 167 229 352 105 128 144 161 152 157 163 172 179 168 164 165 160 150 122 109 110 104 95 88 81 83 89 96 101 105 109 111 96 93 90 90 92 94
200 225 236 259 317 46 341 215 131 149 158 180 220 184 122 128 150 168 157 157 159 163 168 177 171 171 168 166 163 144 125 124 118 104 87 77 76 81 89 96 98 98 90 96 97 96 96 97 96
209 243 251 262 311 350 114 121 172 179 154 175 189 142 136 163 170 158 161 163 164 167 176 177 175 175 177 178 174 165 143 138 134 118 96 82 81 87 92 94 98 98 97 98 97 98 100 101 100
217 268 241 236 68 60 167 176 198 192 176 146 194 182 141 173 162 163 167 171 173 175 182 182 181 181 186 184 184 178 162 155 148 130 110 98 92 87 89 95 100 99 97 98 99 101 102 101 100
252 222 254 298 305 279 207 169 207 204 196 201 265 220 132 175 171 171 173 175 181 185 183 187 188 186 190 191 188 187 180 168 163 152 133 115 103 94 87 92 95 97 102 101 101 101 101 103 105
255 251 250 246 273 291 142 168 227 222 213 177 195 214 182 186 177 170 172 180 186 197 185 187 192 194 193 195 195 195 191 186 181 180 160 137 118 106 96 97 94 97 100 103 103 103 105 110 112
224 236 240 253 250 271 149 191 195 239 238 211 210 244 177 172 178 173 178 187 190 199 193 193 199 199 199 203 200 200 198 197 199 198 188 176 154 136 127 111 105 100 100 102 105 105 106 110 116
233 231 249 35 312 265 177 206 191 225 223 232 225 212 188 177 182 185 189 193 195 198 198 197 196 194 193 197 210 208 206 204 207 209 200 176 162 164 162 142 126 116 106 106 111 113 117 120 123
197 246 73 169 248 233 186 205 211 232 250 240 230 211 206 192 190 197 202 203 202 201 199 201 200 197 201 198 210 208 212 216 212 213 205 197 201 209 195 178 168 157 142 135 135 141 141 140 137
233 240 246 132 199 217 200 205 217 230 238 275 239 226 204 200 201 203 206 207 206 205 205 202 201 201 203 207 207 212 219 215 213 214 212 208 218 237 234 216 197 191 182 196 198 179 168 158 150
235 181 186 176 184 223 276 236 243 251 247 252 233 222 207 209 212 212 212 211 211 209 208 210 204 211 209 215 213 216 219 224 225 228 221 222 232 233 230 230 227 222 212 195 234 249 202 178 168
127 202 190 205 212 229 246 250 251 244 251 238 237 235 222 221 219 216 213 213 212 212 212 210 215 217 215 218 216 220 225 226 224 231 233 236 234 230 235 235 226 231 220 213 208 270 228 209 188
175 225 214 215 210 230 241 246 241 244 251 243 237 238 235 232 224 221 223 218 216 217 215 215 222 223 223 227 227 223 224 226 231 229 235 230 236 232 233 242 226 233 235 216 209 234 244 218 198
220 245 235 128 183 194 214 263 242 224 222 245 244 243 239 237 235 231 225 226 219 218 220 222 228 227 227 230 229 232 230 227 224 231 230 233 234 238 235 236 235 232 238 219 218 210 251 222 206
202 259 216 204 201 201 214 279 231 230 241 254 252 249 246 244 239 234 233 231 229 224 226 226 231 230 231 231 232 233 235 235 233 231 232 230 233 237 234 233 238 240 228 223 215 210 244 233 208
232 228 229 255 141 226 243 256 270 267 251 260 261 257 253 249 243 238 236 238 232 229 229 230 233 234 233 233 233 234 235 235 231 236 235 229 230 234 235 235 240 242 239 221 218 215 227 235 218
284 290 266 259 123 285 263 271 269 273 270 266 261 260 258 254 250 243 233 240 236 234 233 232 233 235 232 232 232 233 237 239 235 236 238 230 228 230 233 238 240 240 242 219 219 219 227 229 212
245 255 259 272 108 249 281 279 277 271 264 259 261 261 259 259 252 242 232 232 240 238 237 235 236 236 234 234 235 235 240 243 240 240 241 234 226 226 234 235 238 237 234 223 218 214 215 224 219
233 245 254 262 317 241 284 275 268 251 250 263 259 260 261 256 253 245 234 239 240 238 239 240 239 238 236 235 235 235 238 242 242 240 237 233 228 228 231 233 234 240 243 229 225 220 231 232 214
255 245 253 269 281 272 291 286 287 287 273 254 261 257 257 258 255 249 239 241 249 247 243 242 239 239 239 237 235 238 243 245 248 246 241 235 230 229 231 229 231 235 226 230 239 232 237 239 223
244 36 252 269 265 298 239 269 266 252 262 261 262 266 268 268 260 251 244 235 246 250 245 243 240 238 237 237 237 239 242 244 246 245 243 236 231 231 229 227 228 232 231 232 239 230 228 236 226
132 117 116 188 277 264 250 225 269 251 267 266 264 272 254 275 261 248 242 240 243 244 242 240 240 240 238 238 238 239 242 241 242 242 242 236 230 231 227 225 231 235 233 236 234 230 233 234 225
197 184 231 242 201 253 67 280 247 296 288 268 277 287 290 276 266 254 256 250 246 244 243 241 239 238 238 238 239 240 240 240 243 245 244 239 231 232 223 225 224 225 227 229 238 236 230 230 226
197 202 208 233 239 265 106 238 264 256 297 294 270 274 284 278 274 270 258 247 240 244 245 244 242 240 240 240 242 242 240 240 240 242 246 243 237 234 228 226 229 232 235 231 233 233 235 230 225
181 221 243 270 319 282 251 265 272 255 229 265 276 282 282 284 274 272 261 246 246 243 241 243 247 247 246 246 246 247 243 241 242 243 244 246 238 235 228 229 231 228 230 232 235 235 235 230 226
235 224 199 215 224 235 256 255 259 284 281 271 277 282 296 304 296 261 247 235 240 237 235 239 246 252 255 256 255 254 250 246 242 244 241 241 237 234 231 230 229 231 230 232 232 232 233 230 224
190 221 223 245 228 245 252 258 272 276 336 353 355 317 314 308 312 280 236 243 234 227 228 240 247 255 262 266 265 258 252 249 244 241 241 241 238 238 231 232 232 232 232 232 231 231 231 226 221
240 226 218 221 222 241 269 268 253 279 304 309 287 305 301 302 321 308 254 231 225 223 221 244 255 267 272 265 263 265 258 253 247 243 241 240 238 236 231 233 234 234 234 231 230 230 226 222 220